Date String (YYYY-MM-DD hh:mm:ss) UTC,Instrument flags,Ambient pressure (hPa),Sample flow (lpm),Bypass flow (lpm),Sample temperature (°C),Ambient temperature (°C),ASC tube jacket temperature (°C),LED temperature (°C),Box temperature (°C),Sample RH (%),Span deviation,Mass concentration (μg/m³),Mass concentration (μg/m³),Mass concentration (μg/m³)
DateTimeUTC,F1_M11,P_M11,Q1_M11,Q2_M11,T1_M11,T2_M11,T3_M11,T4_M11,T5_M11,U1_M11,ZSPAN_M11,X0_M11,X2_M11,X1_M11
2022-05-26 02:00:00,,0824.1,5.00,0.00,29.7,27.6,00.0,38.5,31.3,14.0,0000.0,0006.14,0002.65,0002.13
2022-05-26 02:01:00,,0824.1,5.00,0.00,29.6,27.4,00.0,38.5,31.2,13.7,0000.0,0006.05,0002.64,0002.13
2022-05-26 02:02:00,,0824.1,4.99,0.00,29.5,27.4,00.0,38.5,31.1,13.7,0000.0,0006.27,0002.71,0002.14
2022-05-26 02:03:00,,0824.1,5.01,0.00,29.5,27.5,00.0,38.5,31.2,13.9,0000.0,0006.18,0002.74,0002.17
2022-05-26 02:04:00,,0824.1,4.99,0.00,29.5,27.6,00.0,38.4,31.2,13.9,0000.0,0007.53,0002.75,0002.17
2022-05-26 02:05:00,,0824.1,5.00,0.00,29.5,27.8,00.0,38.4,31.2,13.8,0000.0,0008.49,0002.79,0002.18
2022-05-26 02:06:00,,0824.1,5.00,0.00,29.5,27.9,00.0,38.4,31.2,13.6,0000.0,0008.45,0002.79,0002.19
2022-05-26 02:07:00,,0824.1,5.01,0.00,29.5,28.0,00.0,38.4,31.2,13.7,0000.0,0008.47,0002.78,0002.18
2022-05-26 02:08:00,,0824.1,5.00,0.00,29.5,28.1,00.0,38.4,31.3,13.7,0000.0,0008.51,0002.78,0002.18
2022-05-26 02:09:00,,0824.0,5.00,0.00,29.5,28.2,00.0,38.4,31.3,13.5,0000.0,0008.47,0002.77,0002.18
2022-05-26 02:10:00,,0824.1,5.00,0.00,29.5,28.3,00.0,38.4,31.3,13.5,0000.0,0007.86,0002.80,0002.19
2022-05-26 02:11:00,,0824.0,4.99,0.00,29.5,28.4,00.0,38.4,31.3,13.8,0000.0,0007.70,0002.83,0002.20
2022-05-26 02:12:00,,0824.1,5.00,0.00,29.5,28.4,00.0,38.4,31.3,13.7,0000.0,0008.02,0002.85,0002.22
2022-05-26 02:13:00,,0824.0,4.99,0.00,29.5,28.5,00.0,38.4,31.3,13.8,0000.0,0007.87,0002.79,0002.22
2022-05-26 02:14:00,,0824.1,4.99,0.00,29.5,28.5,00.0,38.4,31.4,13.6,0000.0,0007.76,0002.75,0002.22
2022-05-26 02:15:00,,0824.1,5.00,0.00,29.5,28.6,00.0,38.4,31.4,13.3,0000.0,0006.63,0002.80,0002.24
2022-05-26 02:16:00,,0824.1,5.00,0.00,29.5,28.6,00.0,38.5,31.4,13.4,0000.0,0005.09,0002.79,0002.25
2022-05-26 02:17:00,,0824.1,4.99,0.00,29.5,28.6,00.0,38.5,31.4,13.5,0000.0,0005.27,0002.78,0002.26
2022-05-26 02:18:00,,0824.1,5.00,0.00,29.6,28.7,00.0,38.5,31.4,13.4,0000.0,0005.27,0002.79,0002.26
2022-05-26 02:19:00,,0824.1,5.00,0.00,29.6,28.7,00.0,38.5,31.4,13.4,0000.0,0005.83,0002.81,0002.27
2022-05-26 02:20:00,,0824.1,5.02,0.00,29.6,28.7,00.0,38.5,31.4,13.5,0000.0,0006.38,0002.87,0002.27
2022-05-26 02:21:00,,0824.1,4.99,0.00,29.6,28.7,00.0,38.5,31.4,13.4,0000.0,0007.09,0002.83,0002.27
2022-05-26 02:22:00,,0824.2,5.00,0.00,29.6,28.7,00.0,38.5,31.4,13.2,0000.0,0007.58,0002.83,0002.27
2022-05-26 02:23:00,,0824.2,5.01,0.00,29.6,28.7,00.0,38.5,31.4,13.2,0000.0,0007.42,0002.84,0002.26
2022-05-26 02:24:00,,0824.2,4.99,0.00,29.6,28.7,00.0,38.5,31.4,13.1,0000.0,0007.49,0002.86,0002.27
2022-05-26 02:25:00,,0824.2,4.99,0.00,29.6,28.7,00.0,38.5,31.4,12.8,0000.0,0007.68,0002.92,0002.26
2022-05-26 02:26:00,,0824.2,5.00,0.00,29.6,28.8,00.0,38.5,31.5,12.6,0000.0,0007.65,0002.87,0002.25
2022-05-26 02:27:00,,0824.2,5.00,0.00,29.6,28.8,00.0,38.6,31.5,12.6,0000.0,0007.62,0002.84,0002.24
2022-05-26 02:28:00,,0824.2,4.99,0.00,29.6,28.8,00.0,38.6,31.5,12.5,0000.0,0007.56,0002.85,0002.23
2022-05-26 02:29:00,,0824.2,5.00,0.00,29.7,28.8,00.0,38.6,31.5,12.5,0000.0,0007.52,0002.85,0002.25
2022-05-26 02:30:00,,0824.2,5.00,0.00,29.7,28.8,00.0,38.6,31.5,12.5,0000.0,0007.03,0002.86,0002.27
2022-05-26 02:31:00,,0824.2,5.00,0.00,29.7,28.7,00.0,38.6,31.5,12.4,0000.0,0006.55,0002.85,0002.27
2022-05-26 02:32:00,,0824.2,5.00,0.00,29.6,27.8,00.0,38.5,31.3,12.6,0000.0,0005.71,0002.85,0002.28
2022-05-26 02:33:00,,0824.3,4.99,0.00,29.6,27.3,00.0,38.4,31.1,12.7,0000.0,0004.82,0002.87,0002.30
2022-05-26 02:34:00,,0824.3,5.02,0.00,29.5,27.2,00.0,38.4,31.1,12.9,0000.0,0004.77,0002.92,0002.33
2022-05-26 02:35:00,,0824.3,4.99,0.00,29.4,27.3,00.0,38.4,31.0,13.1,0000.0,0004.77,0002.96,0002.36
2022-05-26 02:36:00,,0824.3,5.00,0.00,29.4,27.4,00.0,38.4,31.1,13.2,0000.0,0004.47,0002.94,0002.39
2022-05-26 02:37:00,,0824.3,4.99,0.00,29.3,27.5,00.0,38.4,31.1,13.1,0000.0,0004.39,0002.97,0002.42
2022-05-26 02:38:00,,0824.3,5.01,0.00,29.3,27.7,00.0,38.4,31.1,13.2,0000.0,0004.31,0002.96,0002.43
2022-05-26 02:39:00,,0824.3,5.00,0.00,29.3,27.8,00.0,38.3,31.1,13.2,0000.0,0004.28,0002.97,0002.44
2022-05-26 02:40:00,,0824.3,5.00,0.00,29.3,27.9,00.0,38.3,31.1,13.4,0000.0,0004.49,0003.02,0002.46
2022-05-26 02:41:00,,0824.3,4.99,0.00,29.3,28.0,00.0,38.3,31.1,13.4,0000.0,0004.56,0003.02,0002.47
2022-05-26 02:42:00,,0824.3,4.99,0.00,29.3,28.1,00.0,38.3,31.1,13.4,0000.0,0004.54,0002.98,0002.49
2022-05-26 02:43:00,,0824.3,5.01,0.00,29.3,28.2,00.0,38.3,31.1,13.5,0000.0,0004.74,0003.00,0002.51
2022-05-26 02:44:00,,0824.3,5.00,0.00,29.3,28.2,00.0,38.3,31.1,13.6,0000.0,0004.72,0003.02,0002.53
2022-05-26 02:45:00,,0824.3,4.99,0.00,29.3,28.3,00.0,38.3,31.2,13.5,0000.0,0004.67,0003.01,0002.53
2022-05-26 02:46:00,,0824.3,5.00,0.00,29.3,28.3,00.0,38.3,31.2,13.5,0000.0,0004.63,0003.00,0002.53
2022-05-26 02:47:00,,0824.3,5.00,0.00,29.4,28.3,00.0,38.3,31.2,13.2,0000.0,0005.00,0003.00,0002.52
2022-05-26 02:48:00,,0824.3,4.99,0.00,29.4,28.4,00.0,38.3,31.2,13.2,0000.0,0005.65,0003.06,0002.52
2022-05-26 02:49:00,,0824.3,4.99,0.00,29.4,28.4,00.0,38.3,31.2,13.4,0000.0,0005.75,0003.11,0002.52
2022-05-26 02:50:00,,0824.3,5.01,0.00,29.4,28.4,00.0,38.3,31.2,13.3,0000.0,0006.37,0003.09,0002.52
2022-05-26 02:51:00,,0824.3,5.00,0.00,29.4,28.4,00.0,38.3,31.2,13.4,0000.0,0006.45,0003.06,0002.50
2022-05-26 02:52:00,,0824.3,4.98,0.00,29.4,28.5,00.0,38.4,31.3,13.2,0000.0,0006.93,0003.10,0002.50
2022-05-26 02:53:00,,0824.3,5.00,0.00,29.4,28.5,00.0,38.4,31.3,12.8,0000.0,0007.25,0003.12,0002.47
2022-05-26 02:54:00,,0824.3,5.00,0.00,29.4,28.5,00.0,38.4,31.3,12.7,0000.0,0007.08,0003.11,0002.43
2022-05-26 02:55:00,,0824.3,4.99,0.00,29.5,28.6,00.0,38.4,31.3,12.7,0000.0,0006.92,0003.03,0002.38
2022-05-26 02:56:00,,0824.3,5.01,0.00,29.5,28.6,00.0,38.4,31.3,12.5,0000.0,0006.82,0002.96,0002.31
2022-05-26 02:57:00,,0824.3,4.99,0.00,29.5,28.7,00.0,38.4,31.3,12.5,0000.0,0006.64,0002.87,0002.26
2022-05-26 02:58:00,,0824.3,5.00,0.00,29.5,28.7,00.0,38.4,31.3,12.5,0000.0,0006.49,0002.85,0002.23
2022-05-26 02:59:00,,0824.3,5.00,0.00,29.5,28.7,00.0,38.4,31.4,12.5,0000.0,0005.65,0002.74,0002.20
